This is the latest recevied weather packets stored in our database for station/object SQ7RAF-15. If no packets are shown the sender has not sent any weather packets the latest 10 day(s).
| Time | Temp. | Humidity | Pressure | Rain* | Wind** | Luminosity | Snow |
|---|---|---|---|---|---|---|---|
| 1777740937 | 21.67° C | 38% | 1019.8 hPa | 0 mm | - | 25 W/m² | - |
| 1777740617 | 22.22° C | 37% | 1019.7 hPa | 0 mm | - | 26 W/m² | - |
| 1777740349 | 22.22° C | 36% | 1019.9 hPa | 0 mm | - | 27 W/m² | - |
| 1777740025 | 22.22° C | 37% | 1019.8 hPa | 0 mm | - | 29 W/m² | - |
| 1777739738 | 22.22° C | 36% | 1020 hPa | 0 mm | - | 29 W/m² | - |
| 1777739435 | 22.22° C | 37% | 1020.1 hPa | 0 mm | - | 30 W/m² | - |
| 1777739145 | 22.78° C | 37% | 1020 hPa | 0 mm | - | 31 W/m² | - |
| 1777738826 | 22.78° C | 36% | 1020 hPa | 0 mm | - | 31 W/m² | - |
| 1777738523 | 22.78° C | 36% | 1020.1 hPa | 0 mm | - | 32 W/m² | - |
| 1777738233 | 22.78° C | 35% | 1020.1 hPa | 0 mm | - | 33 W/m² | - |
| 1777737946 | 22.78° C | 36% | 1020.2 hPa | 0 mm | - | 34 W/m² | - |
| 1777737626 | 22.78° C | 36% | 1020.3 hPa | 0 mm | - | 37 W/m² | - |
| 1777737337 | 22.78° C | 35% | 1020.4 hPa | 0 mm | - | 39 W/m² | - |
| 1777737017 | 22.78° C | 35% | 1020.4 hPa | 0 mm | - | 56 W/m² | - |
| 1777736729 | 23.33° C | 35% | 1020.6 hPa | 0 mm | - | 84 W/m² | - |
| 1777736441 | 23.33° C | 35% | 1020.5 hPa | 0 mm | - | 77 W/m² | - |
| 1777736121 | 23.33° C | 34% | 1020.6 hPa | 0 mm | - | 53 W/m² | - |
| 1777735833 | 23.33° C | 34% | 1020.6 hPa | 0 mm | - | 71 W/m² | - |
| 1777735545 | 23.33° C | 34% | 1020.6 hPa | 0 mm | - | 56 W/m² | - |
| 1777735225 | 23.33° C | 34% | 1020.7 hPa | 0 mm | - | 58 W/m² | - |
| 1777734937 | 23.33° C | 34% | 1020.7 hPa | 0 mm | - | 49 W/m² | - |
| 1777734617 | 23.33° C | 34% | 1020.9 hPa | 0 mm | - | 46 W/m² | - |
| 1777734329 | 23.33° C | 34% | 1020.9 hPa | 0 mm | - | 73 W/m² | - |
| 1777734041 | 23.33° C | 34% | 1021 hPa | 0 mm | - | 50 W/m² | - |
| 1777733721 | 23.33° C | 34% | 1021 hPa | 0 mm | - | 68 W/m² | - |
* Rain latest hour (hover to see other rain measurements)
** Current wind speed in m/s (hover to see current wind gust speed)